STARLINK-1790, 46691

Orbit data source: Space-Track

STARLINK-1790, 46691 is a payload satellite owned by SpaceX/Seattle (US) in LEO that was launched on Sun, 18 Oct 2020 UTC via an FALCON 9 launch vehicle from the Air Force Eastern Test Range (AFETR). Payload-class satellites include a variety of spacecraft equipped with specific instruments for various scientific and technological missions. These include communications satellites like Starlink; space stations such as the ISS; scientific satellites like the Hubble; Earth observation satellites from companies like Planet Labs, Umbra, and HawkEye 360; GPS; miniature CubeSats for education and research; and military/defense satellites.

Not visible in the next 10 days
Identifier
46691, 2020-073X
Orbit
LEO
Country
Flag of USUS
Related business
Manufacturer
SpaceX/Seattle
Mission
Partially operational Commercial Communications
Bus & Motor
STARLINK, Unknown motor
Mass
260 kg wet, ~248 kg dry
Launch date (UTC)
2020-10-18 (6 years ago)
Launch vehicle
FALCON 9
Launch site
Air Force Eastern Test Range (AFETR)
Object type
Payload
Rocket body
Debris
Shape & HBR
Box + 1 Pan, 10.1 m
Radar Cross Section
13.562 m², Large (>1 m²)

Expand to show TLE details & history
Last TLE update: 3 hours ago

TLE from 3 hours ago
0 STARLINK-1790
1 46691U 20073X   26130.59699757  .01218415  10770-2  84022-3 0  9995
2 46691  53.0252 244.4462 0014627 324.6338  35.3726 16.15840490307565
Epoch: 2026-05-10T14:19Z
TLE epoch observation values (Epoch: 2026-05-10T14:19:40.590Z)
Latitude
-0.00004°
Longitude
161.12924°
Altitude
223.91 km
Speed
7.778 km/s
True Right ascension
16h 17m 47s
True Declination
0° 00' 00"
Sunlit
Object was in full shadow at epoch
Visualization orbit readout
Latitude
Unknown
Longitude
Unknown
Altitude
Unknown
Speed
Unknown
Apparent Right ascension
Unknown
Apparent Declination
Unknown
Sunlit
N/A
Visualization observer readout
Local Sidereal Time
01:18:43
Azimuth
Unknown
Elevation
Unknown
Doppler factor
Unknown
Orbital elements
Apogee altitude
240.825 km
Perigee altitude
221.49 km
Semi-major axis
6,609.295 km
Eccentricity
0.00146
Inclination
53.0252°
RAAN
244.4462°
Arg. of periapsis
324.6338°
True anomaly
35.46977°
Mean anomaly
35.3726°
Eccentric anomaly
35.42117°
Mean motion
4.03934 °/min
Orbital period
89.12 mins
BSTAR
0.00084022
Loading maneuver chart data...
Computing Atmospheric mass density...

Documentation

Showing up to 5 results
|